{"data":{"norad_id":51126,"epoch":"2026-09-20T04:13:22.392768Z","epoch_age_seconds":76475,"freshness":"FRESH","line1":"1 51126U 22005Y   26263.17595362 -.00000578  00000+0 -68416-5 0  9992","line2":"2 51126  53.1595 131.4090 0001375  93.9636 266.1522 15.31707195258306","mean_motion":15.31707195,"eccentricity":0.0001375,"inclination_deg":53.1595,"raan_deg":131.409,"arg_perigee_deg":93.9636,"mean_anomaly_deg":266.1522,"bstar":-6.8416e-6,"rev_number":25830,"period_min":94.01274634608,"perigee_km":469.77682975124,"apogee_km":471.66026502677,"semimajor_km":6848.855547389,"source":"CELESTRAK","updated_at":"2026-09-20T09:00:39.588020Z"}}